Find Kosmos-663

NORAD ID: 7349 Int'l Des: 1974-048 Owner: VMF Country: SU operational
LEOCIRCULARPOLAR

实时位置

正在加载3D地球...

关于 Kosmos-663

正在加载描述...

即将过境

Passes for default location (London). Set your location on the main map for personalized predictions.

高度历史

Loading altitude history...

两行轨道根数

1 7349U 74048A 26104.41775763 .00000041 00000-0 26008-4 0 9994
2 7349 82.9520 221.9136 0026265 70.5655 354.1720 13.75853244599449
Epoch: Apr 14, 2026 • Age: 6 hours

当前状态

高度 1001.4 km
速度 7.35 km/s
星下点 -41.34°S, 125.23°E
类型 other

Most Searched